Hourly Data Report for January 02, 2020

TORONTO CITY
ONTARIO
Current Station Operator: ECCC - MSC

43°40'00.000" N
79°24'00.000" W
112.50 m
6158355
71508
XTO

Download Data

Hourly Data (January 2020)
Hourly Data Report for January 2, 2020
TIME
LST
Temp Definition
°C
Dew Point Definition
°C
Rel Hum Definition
%
Precip. Amount Definition
mm

Wind Dir Definition
10's deg

Wind Spd Definition
km/h
Visibility Definition
km
Stn Press Definition
kPa
Hmdx Definition


Wind Chill Definition


Weather Definition


00:00 0.4 -2.6 80 0.0       99.30     LegendNANA
01:00 0.9 -2.4 78 0.0       99.26     LegendNANA
02:00 2.2 -1.8 75 0.0       99.18     LegendNANA
03:00 2.7 -1.6 73 0.0       99.23     LegendNANA
04:00 3.0 -1.0 75 0.0       99.19     LegendNANA
05:00 3.4 -1.1 73 0.0       99.20     LegendNANA
06:00 3.5 -0.6 75 0.0       99.15     LegendNANA
07:00 3.6 -0.8 73 0.0       99.19     LegendNANA
08:00 3.8 -0.9 71 0.0       99.16     LegendNANA
09:00 4.0 -1.2 69 0.0       99.18     LegendNANA
10:00 5.1 -1.9 61 0.0       99.17     LegendNANA
11:00 4.9 -1.9 61 0.0       99.16     LegendNANA
12:00 5.3 -1.4 62 0.0       99.08     LegendNANA
13:00 5.5 -1.7 59 0.0       99.02     LegendNANA
14:00 5.7 -1.2 61 0.0       98.93     LegendNANA
15:00 5.8 -1.8 58 0.0       98.95     LegendNANA
16:00 5.8 -1.9 58 0.0       98.96     LegendNANA
17:00 6.0 -1.1 60 0.0       99.01     LegendNANA
18:00 5.9 -0.5 63 0.0       99.01     LegendNANA
19:00 5.7 -0.1 67 0.0       99.13     LegendNANA
20:00 5.6 0.3 69 0.0       99.10     LegendNANA
21:00 5.7 0.8 71 0.0       99.07     LegendNANA
22:00 5.8 0.6 69 0.0       99.07     LegendNANA
23:00 5.2 0.7 73 0.0       99.06     LegendNANA

Notes on Data Quality.

Legend

  • E = Estimated
  • M = Missing
  • NA = Not Available*
  • [empty] = Indicates an unobserved value
Date modified: